^^
Station Historical Data
Daily Summary for October 16, 2021 Units:  English    Metric   Both
Daily Weekly Monthly Yearly
  High: Low: Average:
Temperature: 58.7 °F 51.1 °F 55.2 °F
Dew Point: 55 °F 43.4 °F 48.4 °F
Humidity: 88% 61% 78%
Wind Speed: 9mph 1mph 4.7mph
Wind Gust: 15mph - -
Wind- - West
Pressure: 29.82 in 29.69 in -
Precipitation: 0.24 in    
 
 
Tabular Data for October 16, 2021
Time Temperature Dew Point Pressure Wind Wind Speed Wind Gust Humidity Rainfall Rate (Hourly) solar
00:00 58.4 °F 54.9 °F 29.75 in NNW 1 mph 1 mph 88% 0.00 in 0 W/m2
00:05 58.5 °F 55 °F 29.74 in NNW 1 mph 2 mph 88% 0.00 in 0 W/m2
00:10 58.5 °F 55 °F 29.74 in NW 2 mph 2 mph 88% 0.00 in 0 W/m2
00:15 58.5 °F 55 °F 29.74 in NW 2 mph 2 mph 88% 0.00 in 0 W/m2
00:20 58.4 °F 54.9 °F 29.73 in NNW 2 mph 2 mph 88% 0.00 in 0 W/m2
00:25 58.4 °F 54.9 °F 29.73 in NNW 2 mph 2 mph 88% 0.00 in 0 W/m2
00:30 58.3 °F 54.8 °F 29.73 in NNW 2 mph 3 mph 88% 0.00 in 0 W/m2
00:35 58.3 °F 54.4 °F 29.73 in WSW 2 mph 3 mph 87% 0.00 in 0 W/m2
00:40 58.2 °F 54.3 °F 29.72 in NNE 2 mph 2 mph 87% 0.00 in 0 W/m2
00:45 58.2 °F 54.3 °F 29.72 in NNW 2 mph 3 mph 87% 0.00 in 0 W/m2
00:50 58.2 °F 54.3 °F 29.72 in North 2 mph 4 mph 87% 0.00 in 0 W/m2
00:55 58.2 °F 54.3 °F 29.72 in WNW 2 mph 4 mph 87% 0.00 in 0 W/m2
01:00 58.3 °F 54.4 °F 29.72 in WNW 2 mph 2 mph 87% 0.00 in 0 W/m2
01:05 58.3 °F 54.4 °F 29.72 in NE 1 mph 2 mph 87% 0.00 in 0 W/m2
01:10 58.4 °F 54.5 °F 29.71 in NNW 2 mph 3 mph 87% 0.00 in 0 W/m2
01:15 58.4 °F 54.5 °F 29.70 in WSW 2 mph 3 mph 87% 0.00 in 0 W/m2
01:20 58.3 °F 54.1 °F 29.70 in SW 2 mph 2 mph 86% 0.00 in 0 W/m2
01:25 58.3 °F 54.1 °F 29.71 in NNE 2 mph 3 mph 86% 0.00 in 0 W/m2
01:30 58.4 °F 54.2 °F 29.69 in NW 3 mph 3 mph 86% 0.00 in 0 W/m2
01:35 58.6 °F 54.7 °F 29.70 in NNW 3 mph 3 mph 87% 0.00 in 0 W/m2
01:40 58.7 °F 54.8 °F 29.71 in NNW 3 mph 3 mph 87% 0.00 in 0 W/m2
01:45 58.6 °F 54.7 °F 29.71 in NNW 3 mph 3 mph 87% 0.00 in 0 W/m2
01:50 58.7 °F 54.8 °F 29.71 in NNW 3 mph 3 mph 87% 0.00 in 0 W/m2
01:55 58.6 °F 54.7 °F 29.72 in NW 2 mph 3 mph 87% 0.00 in 0 W/m2
02:00 58.6 °F 54.7 °F 29.72 in NE 2 mph 3 mph 87% 0.00 in 0 W/m2
02:05 58.5 °F 54.6 °F 29.72 in ENE 2 mph 3 mph 87% 0.00 in 0 W/m2
02:10 58.5 °F 54.6 °F 29.72 in North 2 mph 4 mph 87% 0.00 in 0 W/m2
02:15 58.4 °F 54.2 °F 29.73 in NNW 2 mph 4 mph 86% 0.00 in 0 W/m2
02:20 58.4 °F 54.2 °F 29.73 in NNW 2 mph 2 mph 86% 0.00 in 0 W/m2
02:25 58.3 °F 54.1 °F 29.73 in NNW 2 mph 5 mph 86% 0.00 in 0 W/m2
02:30 58.3 °F 54.1 °F 29.73 in NNW 3 mph 3 mph 86% 0.00 in 0 W/m2
02:35 58.3 °F 54.1 °F 29.72 in North 2 mph 3 mph 86% 0.00 in 0 W/m2
02:40 58.3 °F 54.1 °F 29.72 in WNW 2 mph 4 mph 86% 0.00 in 0 W/m2
02:45 58.3 °F 54.1 °F 29.72 in North 2 mph 4 mph 86% 0.00 in 0 W/m2
02:50 58.3 °F 54.1 °F 29.72 in WNW 2 mph 6 mph 86% 0.00 in 0 W/m2
02:55 58.2 °F 54 °F 29.72 in North 3 mph 7 mph 86% 0.00 in 0 W/m2
03:00 58.1 °F 53.9 °F 29.72 in ENE 3 mph 3 mph 86% 0.13 in 0 W/m2
03:05 58 °F 53.8 °F 29.72 in West 3 mph 4 mph 86% 0.20 in 0 W/m2
03:10 58 °F 54.2 °F 29.72 in NNW 4 mph 4 mph 87% 0.08 in 0 W/m2
03:15 57.8 °F 54 °F 29.72 in NW 4 mph 7 mph 87% 0.05 in 0 W/m2
03:20 57.6 °F 53.8 °F 29.71 in NNE 4 mph 4 mph 87% 0.04 in 0 W/m2
03:25 57.4 °F 53.6 °F 29.70 in NNW 4 mph 4 mph 87% 0.04 in 0 W/m2
03:30 57.2 °F 53.4 °F 29.70 in NW 4 mph 9 mph 87% 0.04 in 0 W/m2
03:35 57.1 °F 53.6 °F 29.70 in NW 4 mph 9 mph 88% 0.04 in 0 W/m2
03:40 56.9 °F 53.4 °F 29.70 in NW 4 mph 4 mph 88% 0.00 in 0 W/m2
03:45 56.6 °F 53.1 °F 29.71 in WNW 4 mph 4 mph 88% 0.00 in 0 W/m2
03:50 56.3 °F 52.5 °F 29.71 in NW 6 mph 6 mph 87% 0.00 in 0 W/m2
03:55 55.1 °F 50 °F 29.70 in NW 8 mph 11 mph 83% 0.00 in 0 W/m2
04:00 54.4 °F 49.3 °F 29.69 in NNW 9 mph 9 mph 83% 0.00 in 0 W/m2
04:05 53.9 °F 48.9 °F 29.70 in NW 9 mph 9 mph 83% 0.00 in 0 W/m2
04:10 53.5 °F 48.5 °F 29.70 in West 7 mph 12 mph 83% 0.00 in 0 W/m2
04:15 53.4 °F 49 °F 29.71 in NW 7 mph 12 mph 85% 0.00 in 0 W/m2
04:20 53.3 °F 48.9 °F 29.71 in NNW 7 mph 15 mph 85% 0.00 in 0 W/m2
04:25 52.9 °F 48.2 °F 29.71 in WNW 7 mph 15 mph 84% 0.00 in 0 W/m2
04:30 52.6 °F 47.9 °F 29.72 in NW 6 mph 9 mph 84% 0.00 in 0 W/m2
04:35 52.3 °F 47.6 °F 29.71 in NW 7 mph 9 mph 84% 0.09 in 0 W/m2
04:40 52.2 °F 47.5 °F 29.72 in WNW 7 mph 7 mph 84% 0.13 in 0 W/m2
04:45 51.8 °F 47.1 °F 29.72 in NW 6 mph 11 mph 84% 0.15 in 0 W/m2
04:50 51.7 °F 47.3 °F 29.72 in NW 7 mph 7 mph 85% 0.12 in 0 W/m2
04:55 51.7 °F 47.3 °F 29.72 in WNW 7 mph 11 mph 85% 0.07 in 0 W/m2
05:00 51.8 °F 47.7 °F 29.72 in WSW 7 mph 7 mph 86% 0.07 in 0 W/m2
05:05 52 °F 48.3 °F 29.72 in NNW 6 mph 7 mph 87% 0.06 in 0 W/m2
05:10 52.2 °F 48.8 °F 29.71 in NW 5 mph 9 mph 88% 0.04 in 0 W/m2
05:15 52.3 °F 48.9 °F 29.71 in West 6 mph 9 mph 88% 0.00 in 0 W/m2
05:20 52.3 °F 48.9 °F 29.72 in NNW 6 mph 10 mph 88% 0.00 in 0 W/m2
05:25 52.1 °F 48.3 °F 29.71 in West 5 mph 10 mph 87% 0.00 in 0 W/m2
05:30 52.2 °F 48.4 °F 29.72 in WNW 5 mph 5 mph 87% 0.04 in 0 W/m2
05:35 52.2 °F 48.1 °F 29.72 in WSW 5 mph 5 mph 86% 0.04 in 0 W/m2
05:40 52.1 °F 48 °F 29.72 in NW 5 mph 11 mph 86% 0.04 in 0 W/m2
05:45 52.1 °F 48 °F 29.72 in NE 6 mph 11 mph 86% 0.00 in 0 W/m2
05:50 52.2 °F 48.1 °F 29.72 in WSW 5 mph 5 mph 86% 0.00 in 0 W/m2
05:55 52.1 °F 47.7 °F 29.72 in NNE 4 mph 5 mph 85% 0.00 in 0 W/m2
06:00 52.1 °F 47.7 °F 29.72 in NNW 4 mph 5 mph 85% 0.00 in 0 W/m2
06:05 51.9 °F 47.2 °F 29.71 in WNW 4 mph 8 mph 84% 0.05 in 0 W/m2
06:10 52 °F 47.6 °F 29.71 in West 5 mph 5 mph 85% 0.05 in 0 W/m2
06:15 52.1 °F 48 °F 29.71 in NNW 5 mph 5 mph 86% 0.05 in 0 W/m2
06:20 52.1 °F 48 °F 29.72 in NW 5 mph 6 mph 86% 0.05 in 0 W/m2
06:25 51.8 °F 47.4 °F 29.72 in NNW 5 mph 6 mph 85% 0.05 in 0 W/m2
06:30 51.8 °F 47.4 °F 29.72 in NNW 5 mph 6 mph 85% 0.04 in 0 W/m2
06:35 51.7 °F 47 °F 29.72 in NE 5 mph 6 mph 84% 0.04 in 0 W/m2
06:40 51.6 °F 46.9 °F 29.73 in SW 5 mph 5 mph 84% 0.07 in 0 W/m2
06:45 51.6 °F 47.2 °F 29.72 in WSW 5 mph 5 mph 85% 0.09 in 0 W/m2
06:50 51.6 °F 47.2 °F 29.72 in NW 4 mph 4 mph 85% 0.09 in 0 W/m2
06:55 51.6 °F 47.2 °F 29.73 in NNW 3 mph 6 mph 85% 0.07 in 0 W/m2
07:00 51.5 °F 47.1 °F 29.73 in NW 3 mph 6 mph 85% 0.07 in 0 W/m2
07:05 51.5 °F 47.1 °F 29.73 in NE 3 mph 6 mph 85% 0.09 in 0 W/m2
07:10 51.4 °F 47 °F 29.73 in NW 3 mph 3 mph 85% 0.06 in 0 W/m2
07:15 51.2 °F 46.5 °F 29.73 in NW 3 mph 5 mph 84% 0.06 in 0 W/m2
07:20 51.2 °F 46.5 °F 29.73 in North 3 mph 3 mph 84% 0.06 in 0 W/m2
07:25 51.1 °F 46.4 °F 29.72 in NNW 2 mph 3 mph 84% 0.04 in 0 W/m2
07:30 51.1 °F 46.7 °F 29.72 in WNW 2 mph 3 mph 85% 0.00 in 0 W/m2
07:35 51.1 °F 46.7 °F 29.72 in NE 2 mph 3 mph 85% 0.00 in 0 W/m2
07:40 51.1 °F 46.7 °F 29.72 in NW 2 mph 4 mph 85% 0.00 in 0 W/m2
07:45 51.1 °F 46.7 °F 29.72 in NNW 2 mph 4 mph 85% 0.00 in 0 W/m2
07:50 51.2 °F 47.2 °F 29.72 in NNW 2 mph 6 mph 86% 0.00 in 0 W/m2
07:55 51.1 °F 47.1 °F 29.72 in West 2 mph 6 mph 86% 0.00 in 0 W/m2
08:00 51.2 °F 47.2 °F 29.71 in WNW 2 mph 4 mph 86% 0.00 in 0 W/m2
08:05 51.2 °F 47.2 °F 29.71 in NW 2 mph 4 mph 86% 0.00 in 0 W/m2
08:10 51.4 °F 47.4 °F 29.72 in WNW 2 mph 4 mph 86% 0.00 in 5 W/m2
08:15 51.5 °F 47.8 °F 29.72 in West 3 mph 4 mph 87% 0.00 in 5 W/m2
08:20 51.7 °F 48 °F 29.72 in NNW 3 mph 4 mph 87% 0.00 in 9 W/m2
08:25 51.8 °F 48.1 °F 29.72 in West 4 mph 5 mph 87% 0.00 in 14 W/m2
08:30 51.9 °F 48.2 °F 29.72 in NW 3 mph 3 mph 87% 0.00 in 21 W/m2
08:35 52 °F 48.3 °F 29.72 in NW 3 mph 3 mph 87% 0.00 in 28 W/m2
08:40 52.1 °F 48 °F 29.72 in WSW 3 mph 4 mph 86% 0.00 in 26 W/m2
08:45 52.2 °F 48.1 °F 29.72 in NW 3 mph 5 mph 86% 0.00 in 39 W/m2
08:50 52.3 °F 48.2 °F 29.72 in NW 4 mph 5 mph 86% 0.00 in 46 W/m2
08:55 52.4 °F 48.3 °F 29.73 in West 3 mph 5 mph 86% 0.00 in 60 W/m2
09:00 52.5 °F 48.1 °F 29.73 in West 4 mph 6 mph 85% 0.00 in 56 W/m2
09:05 52.7 °F 48.6 °F 29.73 in West 4 mph 6 mph 86% 0.00 in 74 W/m2
09:10 52.7 °F 48.3 °F 29.73 in NNW 4 mph 4 mph 85% 0.00 in 76 W/m2
09:15 52.9 °F 48.2 °F 29.73 in NNW 4 mph 6 mph 84% 0.00 in 37 W/m2
09:20 53 °F 48.3 °F 29.73 in NW 5 mph 5 mph 84% 0.00 in 33 W/m2
09:25 53 °F 48 °F 29.73 in West 5 mph 5 mph 83% 0.00 in 44 W/m2
09:30 53.1 °F 47.7 °F 29.72 in NW 5 mph 6 mph 82% 0.00 in 83 W/m2
09:35 53.3 °F 48.3 °F 29.72 in WNW 5 mph 6 mph 83% 0.00 in 65 W/m2
09:40 53.6 °F 48.6 °F 29.72 in NW 5 mph 5 mph 83% 0.00 in 33 W/m2
09:45 53.7 °F 48.3 °F 29.72 in WNW 5 mph 5 mph 82% 0.00 in 139 W/m2
09:50 53.8 °F 48.4 °F 29.72 in NW 5 mph 5 mph 82% 0.00 in 54 W/m2
09:55 54 °F 48.6 °F 29.72 in NNW 5 mph 5 mph 82% 0.00 in 42 W/m2
10:00 54.2 °F 48.8 °F 29.72 in WNW 5 mph 6 mph 82% 0.00 in 37 W/m2
10:05 54.3 °F 48.9 °F 29.73 in West 6 mph 8 mph 82% 0.00 in 47 W/m2
10:10 54.5 °F 49.1 °F 29.73 in WSW 6 mph 7 mph 82% 0.00 in 42 W/m2
10:15 54.6 °F 48.9 °F 29.73 in NW 6 mph 7 mph 81% 0.00 in 40 W/m2
10:20 54.7 °F 49 °F 29.73 in NW 6 mph 13 mph 81% 0.00 in 44 W/m2
10:25 54.8 °F 49.1 °F 29.73 in WNW 6 mph 13 mph 81% 0.00 in 47 W/m2
10:30 54.8 °F 49.1 °F 29.73 in NNW 6 mph 6 mph 81% 0.00 in 53 W/m2
10:35 55 °F 49.3 °F 29.73 in NW 6 mph 6 mph 81% 0.00 in 44 W/m2
10:40 54.9 °F 48.8 °F 29.73 in West 6 mph 6 mph 80% 0.00 in 51 W/m2
10:45 55 °F 49.3 °F 29.73 in NW 6 mph 6 mph 81% 0.00 in 56 W/m2
10:50 55 °F 49.3 °F 29.73 in West 6 mph 6 mph 81% 0.00 in 51 W/m2
10:55 55.2 °F 49.5 °F 29.73 in WSW 5 mph 6 mph 81% 0.00 in 49 W/m2
11:00 55.2 °F 49.1 °F 29.74 in WNW 5 mph 12 mph 80% 0.00 in 44 W/m2
11:05 55.2 °F 48.8 °F 29.74 in WNW 6 mph 12 mph 79% 0.00 in 44 W/m2
11:10 55.2 °F 48.5 °F 29.74 in NW 6 mph 6 mph 78% 0.00 in 40 W/m2
11:15 55.2 °F 48.5 °F 29.74 in NW 6 mph 9 mph 78% 0.00 in 47 W/m2
11:20 55.4 °F 48.7 °F 29.74 in WSW 6 mph 6 mph 78% 0.00 in 74 W/m2
11:25 55.4 °F 48.3 °F 29.74 in NNW 6 mph 6 mph 77% 0.00 in 44 W/m2
11:30 55.4 °F 47.6 °F 29.74 in NNW 7 mph 7 mph 75% 0.00 in 42 W/m2
11:35 55.5 °F 47.7 °F 29.75 in WNW 7 mph 7 mph 75% 0.00 in 62 W/m2
11:40 55.6 °F 47.8 °F 29.75 in WSW 7 mph 7 mph 75% 0.00 in 77 W/m2
11:45 56 °F 47.5 °F 29.75 in WSW 6 mph 7 mph 73% 0.00 in 60 W/m2
11:50 56.1 °F 47.9 °F 29.75 in NW 6 mph 7 mph 74% 0.00 in 91 W/m2
11:55 56.1 °F 47.2 °F 29.75 in North 7 mph 7 mph 72% 0.00 in 113 W/m2
12:00 56.2 °F 46.5 °F 29.75 in SSW 7 mph 7 mph 70% 0.00 in 69 W/m2
12:05 56.1 °F 46.4 °F 29.75 in WNW 6 mph 7 mph 70% 0.00 in 555 W/m2
12:10 56.1 °F 45.7 °F 29.76 in West 7 mph 10 mph 68% 0.00 in 563 W/m2
12:15 56.3 °F 46.3 °F 29.76 in WSW 7 mph 10 mph 69% 0.00 in 598 W/m2
12:20 56.3 °F 45.9 °F 29.76 in West 6 mph 6 mph 68% 0.00 in 123 W/m2
12:25 56.3 °F 46.3 °F 29.76 in NNW 5 mph 6 mph 69% 0.00 in 88 W/m2
12:30 56.2 °F 45.8 °F 29.76 in West 5 mph 5 mph 68% 0.00 in 72 W/m2
12:35 56 °F 45.2 °F 29.76 in WNW 6 mph 7 mph 67% 0.00 in 79 W/m2
12:40 55.8 °F 45 °F 29.76 in WNW 7 mph 7 mph 67% 0.00 in 90 W/m2
12:45 55.8 °F 45 °F 29.76 in NNW 7 mph 7 mph 67% 0.00 in 613 W/m2
12:50 56 °F 45.6 °F 29.76 in NW 7 mph 11 mph 68% 0.00 in 664 W/m2
12:55 56.3 °F 45.9 °F 29.76 in WSW 7 mph 11 mph 68% 0.00 in 178 W/m2
13:00 56.4 °F 46 °F 29.76 in WNW 6 mph 6 mph 68% 0.00 in 171 W/m2
13:05 56.3 °F 46.3 °F 29.76 in NNW 5 mph 7 mph 69% 0.00 in 185 W/m2
13:10 56.2 °F 45.8 °F 29.76 in West 6 mph 14 mph 68% 0.00 in 202 W/m2
13:15 56.2 °F 45.8 °F 29.77 in NNW 6 mph 14 mph 68% 0.00 in 246 W/m2
13:20 56.2 °F 45.4 °F 29.76 in West 6 mph 6 mph 67% 0.00 in 316 W/m2
13:25 56.3 °F 45.1 °F 29.76 in West 7 mph 7 mph 66% 0.00 in 250 W/m2
13:30 56.4 °F 45.2 °F 29.76 in NW 6 mph 6 mph 66% 0.00 in 176 W/m2
13:35 56.3 °F 45.1 °F 29.76 in NE 5 mph 7 mph 66% 0.00 in 90 W/m2
13:40 56.4 °F 44.8 °F 29.76 in South 5 mph 5 mph 65% 0.00 in 601 W/m2
13:45 56.5 °F 44.5 °F 29.76 in WSW 6 mph 7 mph 64% 0.00 in 643 W/m2
13:50 56.8 °F 44.7 °F 29.76 in North 5 mph 9 mph 64% 0.00 in 696 W/m2
13:55 57.1 °F 45 °F 29.76 in SW 5 mph 9 mph 64% 0.00 in 403 W/m2
14:00 57.2 °F 45.5 °F 29.76 in NW 4 mph 5 mph 65% 0.00 in 202 W/m2
14:05 57.3 °F 45.6 °F 29.76 in WNW 4 mph 7 mph 65% 0.00 in 269 W/m2
14:10 57.4 °F 44.9 °F 29.76 in West 5 mph 7 mph 63% 0.00 in 659 W/m2
14:15 57.7 °F 45.6 °F 29.76 in NW 6 mph 7 mph 64% 0.00 in 253 W/m2
14:20 58.1 °F 46 °F 29.76 in WSW 5 mph 6 mph 64% 0.00 in 650 W/m2
14:25 58.4 °F 45.8 °F 29.76 in WNW 5 mph 9 mph 63% 0.00 in 178 W/m2
14:30 58.3 °F 45.3 °F 29.76 in WNW 6 mph 6 mph 62% 0.00 in 148 W/m2
14:35 58.1 °F 44.7 °F 29.76 in North 6 mph 6 mph 61% 0.00 in 88 W/m2
14:40 57.7 °F 44.8 °F 29.76 in NW 5 mph 6 mph 62% 0.00 in 91 W/m2
14:45 57.5 °F 45 °F 29.77 in West 6 mph 7 mph 63% 0.00 in 98 W/m2
14:50 57.2 °F 44.3 °F 29.77 in West 6 mph 8 mph 62% 0.00 in 107 W/m2
14:55 56.9 °F 44 °F 29.77 in West 7 mph 8 mph 62% 0.00 in 128 W/m2
15:00 56.8 °F 44.3 °F 29.77 in WSW 7 mph 7 mph 63% 0.00 in 156 W/m2
15:05 56.8 °F 44.7 °F 29.77 in SW 6 mph 7 mph 64% 0.00 in 172 W/m2
15:10 56.8 °F 45.2 °F 29.77 in NNW 5 mph 7 mph 65% 0.00 in 197 W/m2
15:15 56.8 °F 45.2 °F 29.77 in NNW 5 mph 7 mph 65% 0.00 in 213 W/m2
15:20 56.9 °F 44.8 °F 29.78 in WNW 5 mph 6 mph 64% 0.00 in 232 W/m2
15:25 56.9 °F 44.4 °F 29.78 in West 6 mph 9 mph 63% 0.00 in 213 W/m2
15:30 56.9 °F 44.8 °F 29.78 in NW 6 mph 8 mph 64% 0.00 in 176 W/m2
15:35 57 °F 44.9 °F 29.78 in NNW 5 mph 8 mph 64% 0.00 in 141 W/m2
15:40 56.8 °F 44.7 °F 29.78 in WSW 5 mph 14 mph 64% 0.00 in 128 W/m2
15:45 56.9 °F 45.3 °F 29.78 in WNW 6 mph 14 mph 65% 0.00 in 148 W/m2
15:50 56.8 °F 44.7 °F 29.78 in NNW 6 mph 6 mph 64% 0.00 in 172 W/m2
15:55 56.8 °F 44.7 °F 29.78 in SW 6 mph 6 mph 64% 0.00 in 181 W/m2
16:00 56.7 °F 43.4 °F 29.79 in West 6 mph 6 mph 61% 0.00 in 162 W/m2
16:05 56.6 °F 43.7 °F 29.78 in NW 5 mph 8 mph 62% 0.00 in 158 W/m2
16:10 56.7 °F 44.2 °F 29.79 in West 5 mph 5 mph 63% 0.00 in 134 W/m2
16:15 56.6 °F 44.6 °F 29.79 in West 5 mph 5 mph 64% 0.00 in 98 W/m2
16:20 56.5 °F 44.9 °F 29.79 in NW 5 mph 5 mph 65% 0.00 in 62 W/m2
16:25 56.4 °F 45.2 °F 29.79 in WNW 6 mph 6 mph 66% 0.00 in 65 W/m2
16:30 56.3 °F 44.7 °F 29.79 in West 6 mph 6 mph 65% 0.00 in 53 W/m2
16:35 56.1 °F 45.3 °F 29.79 in NW 6 mph 10 mph 67% 0.00 in 46 W/m2
16:40 56 °F 45.2 °F 29.79 in WNW 6 mph 9 mph 67% 0.00 in 37 W/m2
16:45 55.9 °F 45.1 °F 29.80 in WNW 5 mph 9 mph 67% 0.00 in 35 W/m2
16:50 55.8 °F 45.4 °F 29.80 in WSW 5 mph 8 mph 68% 0.00 in 32 W/m2
16:55 55.7 °F 44.9 °F 29.80 in NW 5 mph 8 mph 67% 0.00 in 25 W/m2
17:00 55.5 °F 45.5 °F 29.80 in West 6 mph 13 mph 69% 0.00 in 26 W/m2
17:05 55.4 °F 45.8 °F 29.80 in West 6 mph 14 mph 70% 0.00 in 28 W/m2
17:10 55.1 °F 45.5 °F 29.80 in NW 5 mph 5 mph 70% 0.00 in 19 W/m2
17:15 55 °F 45.4 °F 29.80 in NW 5 mph 7 mph 70% 0.00 in 35 W/m2
17:20 54.8 °F 44.8 °F 29.81 in WSW 5 mph 5 mph 69% 0.00 in 30 W/m2
17:25 54.8 °F 44.8 °F 29.81 in NNW 7 mph 7 mph 69% 0.00 in 35 W/m2
17:30 54.8 °F 44.4 °F 29.81 in SW 7 mph 7 mph 68% 0.00 in 26 W/m2
17:35 54.8 °F 44.4 °F 29.81 in NW 6 mph 7 mph 68% 0.00 in 28 W/m2
17:40 54.8 °F 44.4 °F 29.81 in SW 6 mph 6 mph 68% 0.00 in 33 W/m2
17:45 54.8 °F 44 °F 29.81 in West 6 mph 12 mph 67% 0.00 in 32 W/m2
17:50 54.7 °F 43.6 °F 29.81 in NNW 6 mph 6 mph 66% 0.00 in 33 W/m2
17:55 54.7 °F 43.6 °F 29.82 in NW 6 mph 7 mph 66% 0.00 in 40 W/m2
18:00 54.7 °F 43.6 °F 29.82 in North 6 mph 6 mph 66% 0.00 in 19 W/m2
18:05 54.6 °F 44.2 °F 29.82 in WSW 6 mph 6 mph 68% 0.00 in 12 W/m2
Sand Point, Michigan, USA
Compliments of Weather Underground - 2 mb